User: anonymous   Login
Location: Unspecified
(0.0000°N, 0.0000°E)
Time: 13:43:35
(UTC+00:00)
Language:

PERSEUS M1 - Orbit

View from above orbital plane
View from above orbital plane
View from above satellite
View from above satellite

Ground track
Ground track

The orbit data is extracted from the following two-line orbital elements,

1 40039U 14033AF  17114.79070435 +.00000378 +00000-0 +49670-4 0  9994
2 40039 097.9165 023.4113 0015612 113.9845 246.3007 14.85830005153831
Epoch (UTC): 24 April 2017 18:58:36
Eccentricity: 0.0015612
inclination: 97.9165°
perigee height: 600 km
apogee height: 622 km
right ascension of ascending node: 23.4113°
argument of perigee: 113.9845°
revolutions per day: 14.85830005
mean anomaly at epoch: 246.3007°
orbit number at epoch: 15383

The dashed part of the orbit path shows where the satellite is in the earth's shadow,  

DLR